Other Public Products
Issued by NWS Charleston, SC

Current Version | Previous Version | Text Only | Print | Product List | Glossary On
Versions: 1 2 3 4 5 6 7 8 9 10 11 12 13 14 15 16 17 18 19 20 21 22 23 24 25 26 27 28 29 30 31 32 33 34 35 36 37 38 39 40 41 42 43 44 45 46 47 48 49 50
370 FPUS82 KCHS 221227 OPUCHS TEST...KCHS/KSAV Gateway Observations...TEST National Weather Service Charleston SC 800 AM EDT WED MAR 22 2017 NOTE: "fair" indicates few or no clouds below 12,000 feet with no significant weather and/or obstructions to visibility. SCZ050-WAZ558-NCZ071-TXZ119-213-PAZ071-DCZ001-FLZ074-172-MI076- NYZ176-178-MAZ016-IL014-TNZ027-NJZ106-GAZ044-MD014-221300- ...Gateway Observations for Charleston International... CITY SKY/WX TMP DP RH WIND PRES REMARKS Chas Airport PTCLDY 61 57 87 S9 29.97R 6HR MIN TEMP: 60; 6HR MAX TEMP: 64; 6HR PCP: TRACE; Seattle MOCLDY 49 43 80 S9 29.74R 6HR MIN TEMP: 47; 6HR MAX TEMP: 50; 6HR PCP: 0.01; Charlotte PTCLDY 53 40 61 N10 30.05R 6HR MIN TEMP: 52; 6HR MAX TEMP: 62; 6HR PCP: TRACE; Dallas DFW PTCLDY 65 61 87 S9 30.03R 6HR MIN TEMP: 65; 6HR MAX TEMP: 72; Dallas Love PTCLDY 66 60 81 S10 30.05R 6HR MIN TEMP: 66; 6HR MAX TEMP: 73; Philladelphia MOSUNNY 41 17 38 NW20 30.06R 6HR MIN TEMP: 41; 6HR MAX TEMP: 52; Wash National PTCLDY 42 22 44 N24G33 30.14R 6HR MIN TEMP: 42; 6HR MAX TEMP: 59; Baltimore PTCLDY 41 21 44 NW23G31 30.11R 6HR MIN TEMP: 41; 6HR MAX TEMP: 53; Miami PTCLDY 64 58 80 CALM 30.12S 6HR MIN TEMP: 64; 6HR MAX TEMP: 65; Detroit CLEAR 22 10 60 N7 30.49R WCI 13 6HR MIN TEMP: 22; 6HR MAX TEMP: 27; Newark MOSUNNY 37 16 42 NW24G40 30.02R WCI 26 6HR MIN TEMP: 37; 6HR MAX TEMP: 49; Laguardia MOSUNNY 40 19 43 NW28G40 29.99R WCI 29 6HR MIN TEMP: 40; 6HR MAX TEMP: 51; J F K MOSUNNY 39 17 41 NW23G36 29.99R WCI 28 6HR MIN TEMP: 39; 6HR MAX TEMP: 49; Boston Logan MOSUNNY 39 22 50 W15G24 29.79R WCI 31 6HR MIN TEMP: 38; 6HR MAX TEMP: 43; Ft. Lauderdale PTCLDY 62 58 86 W3 30.11S 6HR MIN TEMP: 61; 6HR MAX TEMP: 66; Chicago O`Hare MOCLDY 29 15 56 NE15 30.51R WCI 18 6HR MIN TEMP: 29; 6HR MAX TEMP: 33; Chicago Midway CLOUDY 29 16 58 NE20 30.51R WCI 16 6HR MIN TEMP: 29; 6HR MAX TEMP: 33; Houston Bush PTCLDY 59 59 100 CALM 30.09R FOG 6HR MIN TEMP: 59; 6HR MAX TEMP: 69; Houston Hobby FOG 61 61 100 CALM 30.08R VSB 1/2 6HR MIN TEMP: 61; 6HR MAX TEMP: 67; Nashville PTCLDY 46 30 53 NE17 30.28R 6HR MIN TEMP: 46; 6HR MAX TEMP: 55; Atlanta PTCLDY 56 53 90 NW14 30.07R 6HR MIN TEMP: 56; 6HR MAX TEMP: 62; $$ GAZ044-118-TXZ119-213-NCZ071-DCZ001-MDZ014-506-PAZ021-071-NJZ106- NYZ176-178-MAZ106-OHZ011-021-055-MIZ076-KYZ091-ILZ014-INZ047- MNZ060-ONZ431-221300- ...Gateway Observations for Savannah International... CITY SKY/WX TMP DP RH WIND PRES REMARKS Savannah Arpt MOCLDY 58 54 86 N5 30.00R 6HR MIN TEMP: 57; 6HR MAX TEMP: 67; Atlanta PTCLDY 56 53 90 NW14 30.07R 6HR MIN TEMP: 56; 6HR MAX TEMP: 62; Charlotte PTCLDY 53 40 61 N10 30.05R 6HR MIN TEMP: 52; 6HR MAX TEMP: 62; 6HR PCP: TRACE; Dallas DFW PTCLDY 65 61 87 S9 30.03R 6HR MIN TEMP: 65; 6HR MAX TEMP: 72; Houston Bush PTCLDY 59 59 100 CALM 30.09R FOG 6HR MIN TEMP: 59; 6HR MAX TEMP: 69; Wash National PTCLDY 42 22 44 N24G33 30.14R 6HR MIN TEMP: 42; 6HR MAX TEMP: 59; Wash Dulles PTCLDY 37 18 46 N29G37 30.15R WCI 25 6HR MIN TEMP: 37; 6HR MAX TEMP: 59; Baltimore PTCLDY 41 21 44 NW23G31 30.11R 6HR MIN TEMP: 41; 6HR MAX TEMP: 53; Philadelphia MOSUNNY 41 17 38 NW20 30.06R 6HR MIN TEMP: 41; 6HR MAX TEMP: 52; Newark MOSUNNY 37 16 42 NW24G40 30.02R WCI 26 6HR MIN TEMP: 37; 6HR MAX TEMP: 49; Laguardia MOSUNNY 40 19 43 NW28G40 29.99R WCI 29 6HR MIN TEMP: 40; 6HR MAX TEMP: 51; J F K MOSUNNY 39 17 41 NW23G36 29.99R WCI 28 6HR MIN TEMP: 39; 6HR MAX TEMP: 49; Boston MOSUNNY 39 22 50 W15G24 29.79R WCI 31 6HR MIN TEMP: 38; 6HR MAX TEMP: 43; Pittsburg MOCLDY 27 15 61 N14 30.30R WCI 16 6HR MIN TEMP: 27; 6HR MAX TEMP: 33; 6HR PCP: TRACE; Akron FLURRIES 25 16 68 N13 30.35R WCI 14 6HR MIN TEMP: 25; 6HR MAX TEMP: 32; 6HR PCP: TRACE; Cleveland MOCLDY 26 15 63 N15 30.44R WCI 14 6HR MIN TEMP: 26; 6HR MAX TEMP: 32; Cincinnati PTCLDY 29 16 58 N15 30.39R WCI 18 6HR MIN TEMP: 29; 6HR MAX TEMP: 38; Columbus CLEAR 26 14 60 NE13G18 30.41R WCI 15 Detroit CLEAR 22 10 60 N7 30.49R WCI 13 6HR MIN TEMP: 22; 6HR MAX TEMP: 27; Chicago O`Hare MOCLDY 29 15 56 NE15 30.51R WCI 18 6HR MIN TEMP: 29; 6HR MAX TEMP: 33; Minneapolis CLOUDY 22 6 50 SE9 30.55R WCI 12 6HR MIN TEMP: 22; 6HR MAX TEMP: 25; Indianapolis PTCLDY 27 14 58 NE15 30.43R WCI 15 6HR MIN TEMP: 27; 6HR MAX TEMP: 35; Toronto Canada CLEAR 16 -4 41 N22G29 30.41R WCI -2 $$

USA.gov is the U.S. government's official web portal to all federal, state and local government web resources and services.